Regional Weather Roundup
Issued by NWS

Home | Current Version | Previous Version | Text Only | Print | Product List | Glossary On
Versions: 1 2 3 4 5 6 7 8 9 10 11 12 13 14 15 16 17 18 19 20 21 22 23 24 25 26 27 28 29 30 31 32 33 34 35 36 37 38 39 40 41 42 43 44 45 46 47 48 49 50
000
ASUS44 KOUN 091710
RWROK

WEATHER ROUNDUP FOR OKLAHOMA
NATIONAL WEATHER SERVICE NORMAN OK
1100 AM CST FRI DEC 09 2016

NOTE: "FAIR" INDICATES FEW OR NO CLOUDS BELOW 12,000 FEET WITH NO
      SIGNIFICANT WEATHER AND/OR OBSTRUCTIONS TO VISIBILITY.

OKZ001>007-009>012-014-015-017-091800-
NORTHWEST OKLAHOMA AND THE PANHANDLE

CITY           SKY/WX    TMP DP  RH WIND       PRES   REMARKS
GAGE           CLOUDY    31  12  45 S20G25    30.46R WCI  19
GUYMON         CLOUDY    33  23  66 S16G24    30.29R WCI  23
ENID/WOODRING  CLOUDY    27  16  63 SE14      30.60F WCI  15
$$

OKZ016-021>023-033>039-044-045-091800-
SOUTHWEST OKLAHOMA

CITY           SKY/WX    TMP DP  RH WIND       PRES   REMARKS
LAWTON/REGL    CLOUDY    33  12  41 S12       30.60F WCI  24
LAWTON/FT SILL CLOUDY    32  13  46 S12       30.58F WCI  23
FREDERICK      CLOUDY    32  16  51 S13       30.56F WCI  22
CLINTON        CLOUDY    30  10  43 S20       30.52F WCI  17
HOBART         CLOUDY    31  15  52 S17       30.56F WCI  19
ALTUS AFB      CLOUDY    32  13  44 SE15      30.56F WCI  22
$$

OKZ018>020-024>031-091800-
CENTRAL OKLAHOMA

CITY           SKY/WX    TMP DP  RH WIND       PRES   REMARKS
OKLAHOMA CITY  CLOUDY    27  12  53 SE10      30.60F WCI  17
OKC/WILEY POST CLOUDY    27  12  53 SE10      30.61F WCI  17
OKC/TINKER AFB CLOUDY    27  11  52 E6        30.59F WCI  20
STILLWATER     CLOUDY    25  15  66 SE9       30.64F WCI  15
GUTHRIE        CLOUDY    27  13  55 SE10      30.62F WCI  17
$$

OKZ008-013-054>072-091800-
NORTHEAST OKLAHOMA

CITY           SKY/WX    TMP DP  RH WIND       PRES   REMARKS
TULSA          CLOUDY    28  14  55 E6        30.68F WCI  22
TULSA/JONES    CLOUDY    29  12  49 VRB5      30.68F WCI  24
PONCA CITY     CLOUDY    25  12  58 SE13      30.63F WCI  14
BARTLESVILLE   PTSUNNY   27  12  53 SE8       30.69F WCI  19
MUSKOGEE       CLOUDY    31  16  54 E7        30.69F WCI  24
$$

OKZ032-040>043-046>053-073>077-091800-
SOUTH CENTRAL/SOUTHEAST OKLAHOMA

CITY           SKY/WX    TMP DP  RH WIND       PRES   REMARKS
ARDMORE/DWNTWN CLOUDY    32  14  47 SE5       30.64F WCI  27
MCALESTER      MOSUNNY   33  14  45 VRB6      30.65F WCI  28
$$





USA.gov is the U.S. government's official web portal to all federal, state and local government web resources and services.